Overview Statistics Trail Chart Weather Telemetry Raw packets
 

This is the latest recevied weather packets stored in our database for station/object VE3CGR-6. If no packets are shown the sender has not sent any weather packets the latest 10 day(s).

<< 4 5 6 7 8 9 10 >>
Time Temp. Humidity Pressure Rain* Wind** Luminosity Snow
1788532817 21.67° C 79% 1016 hPa 0 mm - - -
1788532217 21.67° C 81% 1016 hPa 0 mm - - -
1788531617 21.11° C 83% 1016 hPa 0 mm - - -
1788531017 21.11° C 84% 1016.2 hPa 0 mm - - -
1788530416 20.56° C 84% 1016.1 hPa 0 mm - - -
1788529816 20.56° C 85% 1016.2 hPa 0 mm - - -
1788529217 20° C 86% 1016.2 hPa 0 mm - - -
1788528616 19.44° C 87% 1016.3 hPa 0 mm - - -
1788528016 19.44° C 88% 1016.6 hPa 0 mm - - -
1788527416 18.89° C 89% 1016.4 hPa 0 mm - - -
1788526816 18.33° C 91% 1016.2 hPa 0 mm - - -
1788526217 17.78° C 92% 1016.2 hPa 0 mm - - -
1788525617 16.67° C 92% 1016.4 hPa 0 mm - - -
1788525017 16.11° C 92% 1016 hPa 0 mm - - -
1788524416 16.11° C 92% 1015.8 hPa 0 mm - - -
1788523816 16.11° C 93% 1015.9 hPa 0 mm - - -
1788523216 15° C 93% 1016.1 hPa 0 mm - - -
1788522616 15° C 93% 1015.9 hPa 0 mm - - -
1788522016 14.44° C 93% 1015.7 hPa 0 mm - - -
1788521416 13.89° C 93% 1015.5 hPa 0 mm - - -
1788520816 13.89° C 92% 1015.6 hPa 0 mm - - -
1788520216 13.89° C 92% 1015.6 hPa 0 mm - - -
1788519616 13.89° C 92% 1015.3 hPa 0 mm - - -
1788519016 13.89° C 92% 1015.5 hPa 0 mm - - -
1788518416 13.89° C 92% 1015.6 hPa 0 mm - - -

* Rain latest hour (hover to see other rain measurements)
** Current wind speed in m/s (hover to see current wind gust speed)